OPS 4682 DEB, 18538

Orbit data source: Space-Track

OPS 4682 DEB, 18538 is space debris in LEO originally from a launch on Sat, 03 Apr 1965 UTC launched from the Air Force Western Test Range (AFWTR). Debris objects in space refer to the collection of defunct objects orbiting the Earth. Examples of debris include non-operational satellites, rocket bodies, and fragments generated from explosions, collisions, or faulty payload assembly.

Loading next visibility...
Identifier
18538, 1965-027AF
Orbit
LEO
Country
Flag of USUS
Related business
Manufacturer
Unknown
Mission
Spacecraft
Bus & Motor
Unknown
Mass
Unknown
Launch date (UTC)
1965-04-03 (61 years ago)
Launch vehicle
Unknown
Launch site
Air Force Western Test Range (AFWTR)
Object type
Payload
Rocket body
Debris
Shape & HBR
Unknown shape, 0.1 m
Radar Cross Section
Medium (>0.1 m² and <1 m²)

Expand to show TLE details & history
Last TLE update: 17 hours ago

TLE from 17 hours ago
0 OPS 4682 DEB
1 18538U 65027AF  26264.56232925  .00000051  00000-0  15566-3 0  9991
2 18538  90.2454   5.8111 0027433 271.4788 102.5076 12.95335017508148
Epoch: 2026-09-21T13:29Z
TLE epoch observation values (Epoch: 2026-09-21T13:29:45.247Z)
Latitude
14.26324°
Longitude
162.87012°
Altitude
1,287.185 km
Speed
7.211 km/s
True Right ascension
00h 22m 59s
True Declination
14° 11' 13"
Sunlit
Object was in full shadow at epoch
Visualization orbit readout
Latitude
Unknown
Longitude
Unknown
Altitude
Unknown
Speed
Unknown
Apparent Right ascension
Unknown
Apparent Declination
Unknown
Sunlit
N/A
Visualization observer readout
Local Sidereal Time
23:42:59
Azimuth
Unknown
Elevation
Unknown
Doppler factor
Unknown
Orbital elements
Apogee altitude
1,298.555 km
Perigee altitude
1,256.551 km
Semi-major axis
7,655.69 km
Eccentricity
0.00274
Inclination
90.2454°
RAAN
5.8111°
Arg. of periapsis
271.4788°
True anomaly
102.81427°
Mean anomaly
102.5076°
Eccentric anomaly
102.66096°
Mean motion
3.24016 °/min
Orbital period
111.11 mins
BSTAR
0.00015566
Loading maneuver chart data...
Computing Atmospheric mass density...
Loading historical data...
Loading historical data...
Loading historical data...
Loading historical data...
Loading historical data...
Loading historical data...
Loading historical data...

Documentation

Showing up to 5 results
|